Regional Weather Roundup
Issued by NWS Kansas City/Pleasant Hill, MO

Home | Current Version | Previous Version | Graphics & Text | Print | Product List | Glossary Off
Versions: 1 2 3 4 5 6 7 8 9 10 11 12 13 14 15 16 17 18 19 20 21 22 23 24 25 26 27 28 29 30 31 32 33 34 35 36 37 38 39 40 41 42 43 44 45 46 47 48 49 50

869
ASUS43 KEAX 110210
RWREAX

WEATHER ROUNDUP FOR EASTERN KANSAS AND NORTHWEST MISSOURI
NATIONAL WEATHER SERVICE KANSAS CITY/PLEASANT HILL MO
800 PM CST WED FEB 10 2016

KSZ040-057-103>105-MOZ028-029-037-043-110300-
...KANSAS CITY METROPOLITAN AREA...

CITY           SKY/WX    TMP DP  RH WIND       PRES   REMARKS
K.C. INTL      PTCLDY    37  21  52 E12       29.99R WCI  29
K.C. DOWNTOWN  CLEAR     37  21  52 E17       29.99R WCI  27
LEES SUMMIT    CLEAR     37  20  50 E10       29.99R WCI  30
OLATHE - IXD   CLEAR     40  22  48 E7        29.97R
OLATHE - OJC   CLEAR     39  20  46 E7        29.97R WCI  34
LAWRENCE       CLEAR     41  23  48 E8        29.97R

$$

MOZ001>008-011>017-020>025-030>033-038>040-044>046-053-054-110300-
...NORTHERN AND CENTRAL MISSOURI...

CITY           SKY/WX    TMP DP  RH WIND       PRES   REMARKS
ST. JOSEPH     CLEAR     32  22  66 E12       30.01R WCI  23
MOSBY          CLEAR     32  23  69 E12       30.02S WCI  23
WARRENSBURG    CLEAR     30  21  69 E13G20    30.02S WCI  20
WHITEMAN AFB   PTCLDY    29  21  74 E9        30.02R WCI  20
CLINTON          N/A     36  23  60 NE10      30.01R WCI  28
SEDALIA        CLEAR     28  20  71 E10       30.06R WCI  19
WARSAW         NOT AVBL
CHILLICOTHE      N/A     26  20  77 E9        30.08S WCI  17
KIRKSVILLE     CLOUDY    21  16  81 E7        30.10S WCI  12

$$

MOZ041-047>049-056>058-063>065-088>090-097-110300-
...EASTERN AND SOUTHERN MISSOURI...

CITY           SKY/WX    TMP DP  RH WIND       PRES   REMARKS
ST. LOUIS INTL FLURRIES  24  17  74 SE3       30.16R
SPIRIT OF STL  CLOUDY    22  18  85 CALM      30.15R
COLUMBIA       PTCLDY    23  18  81 E9        30.08S WCI  13
JEFFERSON CITY PTCLDY    25  18  74 E5        30.11R WCI  19
ROLLA          CLEAR     24  18  77 E13       30.05R WCI  12
OSAGE BEACH    CLEAR     27  18  69 E9        30.05R WCI  17
SPRINGFIELD    CLEAR     33  19  56 E3        29.97S
BRANSON        PTCLDY    39  23  52 CALM      30.00R
JOPLIN         CLEAR     42  24  49 VRB5      29.95S
WEST PLAINS    CLEAR     33  11  39 E7        30.06R WCI  27

$$

IAZ060-094-KSZ022-034>040-054-083-096-NEZ052-066-093-110300-
...KANSAS...SOUTHEAST NEBRASKA AND IOWA...

CITY           SKY/WX    TMP DP  RH WIND       PRES   REMARKS
TOPEKA         CLEAR     42  24  49 E7        29.96R
MANHATTAN      CLEAR     47  31  53 N3        29.97R
EMPORIA        CLEAR     48  30  49 N6        29.94R
CHANUTE        CLEAR     45  29  53 SE7       29.93R
WICHITA        PTCLDY    52  30  43 NW8       29.95R
OMAHA          CLOUDY    25  19  78 NE10      30.09R WCI  15
LINCOLN        CLOUDY    31  25  78 N8        30.05R WCI  23
FALLS CITY     CLOUDY    34  22  61 NE7       30.00R WCI  28
LAMONI         CLOUDY    22  18  85 E7        30.07R WCI  13
DES MOINES     CLOUDY    19  11  70 NE10      30.15R WCI   7

$$





USA.gov is the U.S. government's official web portal to all federal, state and local government web resources and services.